Home   Weather   Altstätten   Past weeks

Flag for Switzerland Past Weather in Altstätten, St. Gallen, Switzerland — Yesterday and Last 2 Weeks

Now
34 °F

Fog.


Feels Like: 31 °F
Forecast: 30 / 59 °F
Wind: 3 mph from East

Location: Saint Gallen-Altenrhein

Current Time: Apr 29, 2017 at 4:04:09 am

Latest Report: Apr 29, 2017 at 3:20 am


Visibility: 1 mi

Pressure: 30.09 "Hg

Humidity: 100%

Dew Point: 34 °F

Location of AltstättenLocation

Past Weather in Altstätten — Graph

°F

Altstätten Temperature Yesterday

Maximum temperature yesterday: 43 °F (at 4:50 pm)
Minimum temperature yesterday: 32 °F (at 3:50 am)
Average temperature yesterday: 36 °F

High & Low Weather Summary for the Past Weeks

 TemperatureHumidityPressure
High63 °F (Apr 24, 5:50 pm)100% (Apr 16, 5:20 pm)30.51 "Hg (Apr 16, 5:20 pm)
Low28 °F (Apr 20, 4:50 am)22% (Apr 21, 6:50 pm)29.71 "Hg (Apr 26, 12:20 am)
Average44 °F77%30.11 "Hg
* Reported Apr 14 2:20 am — Apr 29 2:20 am, Altstätten, Weather by CustomWeather, © 2017

Note: Actual official high and low records may vary slightly from our data, if they occured in-between our weather recording intervals... More about our weather records

Advertising

Altstätten Weather History for the Previous 24 Hours

Scroll right to see more
 ConditionsComfort  
Time TempWeatherWind HumidityBarometerVisibility
2:20 am
Sat, Apr 29
36 °FPassing clouds.2 mph100%30.09 "Hg4 mi
1:50 am37 °FPassing clouds.2 mph93%30.09 "Hg4 mi
1:20 am36 °FFog.1 mph100%30.09 "Hg2 mi
12:50 am36 °FFog.2 mph93%30.09 "Hg1 mi
12:20 am36 °FOvercast.1 mph100%30.09 "Hg3 mi
11:50 pm
Fri, Apr 28
36 °FOvercast.2 mph100%30.09 "Hg5 mi
11:20 pm37 °FClear.5 mph93%30.09 "Hg3 mi
10:50 pm37 °FPartly cloudy.3 mph100%30.09 "Hg3 mi
10:20 pm37 °FPartly cloudy.1 mph100%30.09 "Hg4 mi
9:50 pm37 °FPartly cloudy.1 mph93%30.07 "Hg3 mi
9:20 pm39 °FPassing clouds.2 mph93%30.07 "Hg4 mi
8:50 pm39 °FPassing clouds.2 mph93%30.07 "HgN/A
8:20 pm39 °FPartly sunny.6 mph93%30.04 "HgN/A
7:50 pm41 °FPartly sunny.2 mph87%30.04 "HgN/A
7:20 pm41 °FPartly sunny.3 mph87%30.04 "HgN/A
6:50 pm41 °FLight rain. Partly sunny.9 mph93%30.01 "HgN/A
6:20 pm41 °FLight rain. Partly sunny.3 mph87%30.04 "HgN/A
5:50 pm41 °FMore clouds than sun.5 mph81%30.04 "HgN/A
5:20 pm43 °FMore clouds than sun.10 mph76%30.01 "HgN/A
4:50 pm43 °FMore clouds than sun.2 mph81%30.01 "HgN/A
4:20 pm41 °FMore clouds than sun.3 mph81%30.01 "HgN/A
3:50 pm39 °FLight rain. Mostly cloudy.5 mph93%30.01 "HgN/A
3:20 pm39 °FLight rain. Mostly cloudy.5 mph87%30.01 "Hg6 mi
2:50 pm39 °FLight rain. Overcast.7 mph93%29.98 "Hg6 mi
2:20 pm37 °FLight rain. More clouds than sun.8 mph93%29.98 "Hg4 mi
1:50 pm37 °FLight rain. More clouds than sun.6 mph93%29.98 "Hg4 mi
1:20 pm36 °FLight rain. More clouds than sun.7 mph100%29.95 "Hg4 mi
12:50 pm36 °FLight rain. More clouds than sun.7 mph100%29.95 "Hg4 mi
12:20 pm36 °FLight rain. More clouds than sun.6 mph100%29.92 "Hg6 mi
11:50 am36 °FLight rain. Low clouds.6 mph100%29.92 "Hg6 mi
11:20 am36 °FLight rain. Low clouds.7 mph93%29.89 "Hg6 mi
10:50 am36 °FLight rain. Low clouds.7 mph93%29.89 "Hg6 mi
10:20 am34 °FLight rain. Low clouds.8 mph100%29.89 "Hg3 mi
9:50 am34 °FLight rain. Low clouds.8 mph100%29.89 "Hg3 mi
9:20 am34 °FLight rain. Low clouds.7 mph100%29.89 "Hg5 mi
8:50 am34 °FLight rain. Low clouds.8 mph100%29.89 "Hg5 mi
8:20 am34 °FLight rain. Low clouds.8 mph100%29.86 "Hg4 mi
7:50 am34 °FLight rain. Low clouds.8 mph100%29.86 "Hg4 mi
7:20 am34 °FLight snow. Partly sunny.7 mph100%29.86 "Hg4 mi
6:50 am34 °FLight snow. Partly sunny.5 mph100%29.86 "Hg5 mi
6:20 am34 °FLight snow. Partly sunny.5 mph100%29.86 "Hg5 mi
5:50 am34 °FLight snow. Passing clouds.3 mph100%29.86 "Hg4 mi
5:20 am34 °FLight snow. Passing clouds.5 mph93%29.86 "Hg2 mi
4:50 am34 °FLight snow. Passing clouds.8 mph93%29.86 "Hg2 mi
4:20 am32 °FLight snow. Passing clouds.6 mph100%29.86 "Hg2 mi
Weather by CustomWeather, © 2017

See weather overviewHow to use our weather pages